Weather History for Denver, CO

Change the Weather History Date:

Monday, December 10, 2012

  Actual Average Record
Temperature  
Mean Temperature 26 °F 30 °F  
Max Temperature 39 °F 43 °F 70 °F (1939)
Min Temperature 12 °F 17 °F -18 °F (1972)
Degree Days  
Heating Degree Days 39 35  
Month to date heating degree days 255 342  
Since 1 July heating degree days 1450 1724  
Cooling Degree Days 0 0  
Month to date cooling degree days 0 0  
Year to date cooling degree days 1236 769  
Moisture  
Dew Point 5 °F    
Average Humidity 36    
Maximum Humidity 53    
Minimum Humidity 19    
Precipitation  
Precipitation 0.04 in 0.01 in 0.44 in (1989)
Month to date precipitation 0.04 0.12  
Year to date precipitation 9.88 14.07  
Snow  
Snow 0.70 in - - ()
Month to date snowfall 0.7  
Since 1 July snowfall 7.9  
Snow Depth 0.00 in    
Sea Level Pressure  
Sea Level Pressure 29.97 in    
Wind  
Wind Speed 11 mph (WNW)    
Max Wind Speed 21 mph    
Max Gust Speed 24 mph    
Visibility 8 miles    
Events Fog , Snow    
T = Trace of Precipitation, MM = Missing Value Source: NWS Daily Summary

Daily Weather History Graph

Daily Weather History Graph

Search for Another Location

Airport:

Trip Planner

Search our weather history database for the weather conditions in past years. The results will help you decide how hot, cold, wet, or windy it might be!

Date:

Astronomy

Dec. 10, 2012 Rise Set
Actual Time 7:09 AM MST 4:33 PM MST
Civil Twilight 6:39 AM MST 5:04 PM MST
Nautical Twilight 6:05 AM MST 5:38 PM MST
Astronomical Twilight 5:32 AM MST 6:10 PM MST
Moon 3:56 AM MST (12/10) 2:24 PM MST (12/10)
Length of Visible Light 10h 25m
Length of Day
9h 24m
Waning Crescent, 10% of the Moon is Illuminated
Dec 10
Waning Crescent
Dec 13
New
Dec 19
First Quarter
Dec 28
Full
Jan 4
Last Quarter

Hourly Weather History & Observations

Time (MST) Temp. Windchill Dew Point Humidity Pressure Visibility Wind Dir Wind Speed Gust Speed Precip Events Conditions
12:53 AM 14.0 °F -2.5 °F -5.1 °F 43% 30.07 in 10.0 mi SSW 17.3 mph - N/A   Scattered Clouds
1:53 AM 12.9 °F -3.4 °F -6.0 °F 43% 30.05 in 10.0 mi SSW 16.1 mph - N/A   Scattered Clouds
2:53 AM 14.0 °F -0.2 °F -6.0 °F 41% 30.04 in 10.0 mi SSW 12.7 mph - N/A   Partly Cloudy
3:53 AM 15.1 °F 1.1 °F -6.0 °F 39% 30.01 in 10.0 mi South 12.7 mph - N/A   Scattered Clouds
4:53 AM 18.0 °F 5.4 °F -5.1 °F 36% 30.02 in 10.0 mi SSW 11.5 mph - N/A   Mostly Cloudy
5:53 AM 15.1 °F -0.1 °F -4.0 °F 43% 30.03 in 10.0 mi SW 15.0 mph - N/A   Mostly Cloudy
6:53 AM 16.0 °F 2.3 °F -2.0 °F 45% 30.00 in 10.0 mi WSW 12.7 mph - N/A   Scattered Clouds
7:53 AM 24.1 °F 13.7 °F 1.0 °F 37% 29.98 in 9.0 mi SW 10.4 mph - N/A   Mostly Cloudy
8:53 AM 30.9 °F 20.2 °F -0.0 °F 27% 29.97 in 10.0 mi West 15.0 mph 24.2 mph N/A   Mostly Cloudy
9:53 AM 33.1 °F 22.2 °F -0.0 °F 24% 29.96 in 10.0 mi West 17.3 mph - N/A   Mostly Cloudy
10:53 AM 37.0 °F 29.3 °F -0.9 °F 20% 29.97 in 10.0 mi WNW 11.5 mph - N/A   Mostly Cloudy
11:53 AM 37.0 °F 31.6 °F -2.0 °F 19% 29.92 in 10.0 mi West 6.9 mph - N/A   Mostly Cloudy
12:53 PM 37.9 °F 33.5 °F -2.0 °F 18% 29.89 in 10.0 mi West 5.8 mph - N/A   Scattered Clouds
1:53 PM 37.9 °F 34.4 °F -2.0 °F 18% 29.88 in 10.0 mi West 4.6 mph - N/A   Scattered Clouds
2:53 PM 36.0 °F 29.0 °F -0.9 °F 21% 29.87 in 10.0 mi West 9.2 mph - N/A   Mostly Cloudy
3:53 PM 35.1 °F 27.4 °F 1.9 °F 25% 29.89 in 10.0 mi West 10.4 mph - N/A   Mostly Cloudy
4:53 PM 34.0 °F 24.6 °F 1.9 °F 26% 29.90 in 10.0 mi WNW 13.8 mph - N/A   Mostly Cloudy
5:53 PM 28.9 °F 21.1 °F 3.0 °F 33% 29.96 in 10.0 mi North 8.1 mph - N/A   Mostly Cloudy
6:53 PM 26.1 °F 19.4 °F 3.9 °F 39% 29.97 in 10.0 mi ESE 5.8 mph - N/A   Mostly Cloudy
7:53 PM 28.0 °F 20.8 °F 7.0 °F 41% 29.96 in 10.0 mi ENE 6.9 mph - N/A   Overcast
8:53 PM 28.0 °F 18.6 °F 12.0 °F 51% 29.94 in 10.0 mi ESE 10.4 mph - N/A   Overcast
9:53 PM 28.0 °F 17.5 °F 14.0 °F 56% 29.96 in 10.0 mi ENE 12.7 mph - N/A   Overcast
10:19 PM 24.8 °F 13.4 °F 19.4 °F 80% 29.94 in 1.0 mi ENE 12.7 mph - 0.00 in Snow Light Snow
10:24 PM 24.8 °F 15.3 °F 19.4 °F 80% 29.94 in 1.0 mi ENE 9.2 mph - 0.00 in Snow Light Snow
10:36 PM 24.8 °F 16.1 °F 21.2 °F 86% 29.95 in 0.8 mi ENE 8.1 mph - 0.00 in Snow Light Snow
10:53 PM 25.0 °F 19.3 °F 21.0 °F 85% 29.99 in 0.5 mi NE 4.6 mph - 0.01 in Fog , Snow Snow
11:01 PM 24.8 °F 19.1 °F 21.2 °F 86% 29.96 in 1.0 mi NNE 4.6 mph - 0.01 in Snow Light Snow
11:16 PM 24.8 °F 16.1 °F 21.2 °F 86% 29.96 in 1.0 mi NNE 8.1 mph - 0.01 in Snow Light Snow
11:26 PM 24.8 °F 15.3 °F 19.4 °F 80% 29.96 in 1.0 mi NNE 9.2 mph - 0.02 in Snow Light Snow
11:53 PM 23.0 °F 13.1 °F 19.0 °F 85% 30.01 in 0.8 mi NE 9.2 mph - 0.02 in Snow Light Snow